Rawlins, WY

5:42 PM MDT on March 27, 2017 (GMT -0600)
Rawlins Municipal

Weather History for KRWL - October, 2011

Change the Weather History Date:

Saturday, October 22, 2011

  Actual Average Record
Temperature  
Mean Temperature 49 °F 41 °F  
Max Temperature 61 °F 54 °F 76 °F (2003)
Min Temperature 37 °F 29 °F 8 °F (1984)
Degree Days  
Heating Degree Days 16 24  
Month to date heating degree days 359 439  
Since 1 July heating degree days 590 825  
Cooling Degree Days 0 0  
Month to date cooling degree days 0 0  
Year to date cooling degree days 242 186  
Moisture  
Dew Point 26 °F    
Average Humidity 43    
Maximum Humidity 64    
Minimum Humidity 22    
Precipitation  
Precipitation 0.00 in 0.03 in 0.48 in (2010)
Month to date precipitation 0.58 0.57  
Year to date precipitation 8.24 8.09  
Sea Level Pressure  
Sea Level Pressure 30.10 in    
Wind  
Wind Speed 16 mph (WSW)    
Max Wind Speed 25 mph    
Max Gust Speed 37 mph    
Visibility 10 miles    
Events      
T = Trace of Precipitation, MM = Missing Value Source: NWS Daily Summary

Daily Weather History Graph

Daily Weather History Graph

Search for Another Location

Airport or City:

Trip Planner

Search our weather history database for the weather conditions in past years. The results will help you decide how hot, cold, wet, or windy it might be!

Date:

Astronomy

Oct. 22, 2011 Rise Set
Actual Time 7:28 AM MDT 6:17 PM MDT
Civil Twilight 7:00 AM MDT 6:45 PM MDT
Nautical Twilight 6:28 AM MDT 7:17 PM MDT
Astronomical Twilight 5:55 AM MDT 7:49 PM MDT
Moon 2:25 AM MDT (10/22) 3:40 PM MDT (10/22)
Length of Visible Light 11h 44m
Length of Day
10h 48m
Waning Crescent, 23% of the Moon is Illuminated
Oct 22
Waning Crescent
Oct 26
New
Nov 2
First Quarter
Nov 10
Full
Nov 18
Last Quarter

Hourly Weather History & Observations

Time (MDT) Temp. Windchill Dew Point Humidity Pressure Visibility Wind Dir Wind Speed Gust Speed Precip Events Conditions
1:53 AM 45.0 °F 40.1 °F 28.0 °F 52% 30.06 in 10.0 mi WSW 9.2 mph - N/A   Partly Cloudy
2:53 AM 43.0 °F 37.2 °F 28.0 °F 56% 30.06 in 10.0 mi SW 10.4 mph - N/A   Clear
3:53 AM 45.0 °F 39.3 °F 28.0 °F 52% 30.05 in 10.0 mi West 11.5 mph - N/A   Overcast
4:53 AM 41.0 °F 37.1 °F 28.0 °F 60% 30.07 in 10.0 mi West 5.8 mph - N/A   Clear
5:53 AM 41.0 °F 32.2 °F 28.0 °F 60% 30.08 in 10.0 mi WSW 18.4 mph 26.5 mph N/A   Clear
6:53 AM 39.0 °F 31.0 °F 27.0 °F 62% 30.13 in 10.0 mi WSW 13.8 mph - N/A   Clear
7:53 AM 37.9 °F 30.0 °F 27.0 °F 65% 30.17 in 10.0 mi WSW 12.7 mph - N/A   Clear
8:53 AM 42.1 °F 34.2 °F 28.9 °F 60% 30.15 in 10.0 mi WSW 16.1 mph 24.2 mph N/A   Clear
9:53 AM 46.0 °F 38.8 °F 28.9 °F 51% 30.14 in 10.0 mi WSW 18.4 mph 26.5 mph N/A   Clear
10:53 AM 52.0 °F - 28.0 °F 40% 30.13 in 10.0 mi WSW 15.0 mph 20.7 mph N/A   Clear
11:53 AM 55.0 °F - 28.0 °F 35% 30.11 in 10.0 mi West 20.7 mph 32.2 mph N/A   Clear
12:53 PM 57.9 °F - 28.0 °F 32% 30.10 in 10.0 mi West 20.7 mph 26.5 mph N/A   Clear
1:53 PM 59.0 °F - 25.0 °F 27% 30.08 in 10.0 mi West 18.4 mph 25.3 mph N/A   Clear
2:53 PM 60.1 °F - 21.0 °F 22% 30.06 in 10.0 mi West 19.6 mph 32.2 mph N/A   Clear
3:53 PM 60.1 °F - 21.0 °F 22% 30.05 in 10.0 mi West 23.0 mph 29.9 mph N/A   Clear
4:53 PM 57.0 °F - 23.0 °F 27% 30.09 in 10.0 mi West 20.7 mph 28.8 mph N/A   Clear
5:53 PM 55.0 °F - 21.0 °F 27% 30.09 in 10.0 mi West 16.1 mph 23.0 mph N/A   Clear
6:53 PM 52.0 °F - 21.9 °F 31% 30.12 in 10.0 mi West 15.0 mph - N/A   Clear
7:53 PM 50.0 °F - 24.1 °F 36% 30.14 in 10.0 mi WSW 17.3 mph 31.1 mph N/A   Clear
8:53 PM 46.9 °F - 23.0 °F 39% 30.13 in 10.0 mi SW 12.7 mph - N/A   Clear
9:53 PM 46.9 °F - 21.9 °F 37% 30.12 in 10.0 mi WSW 19.6 mph - N/A   Clear
10:53 PM 44.1 °F 37.7 °F 23.0 °F 43% 30.12 in 10.0 mi SW 12.7 mph - N/A   Clear
11:53 PM 43.0 °F 36.4 °F 26.1 °F 51% 30.12 in 10.0 mi SW 12.7 mph - N/A   Clear